sat.trackr.live / text

‹ back to catalog

COSMOS 2488 (RODNIK-S 7)

NORAD 39483 · 2013-076A

PAYLOAD ACTIVE UNKNOWN

§ Identity

Operator
Country
CIS
Launch date
2013-12-25
Launch site
PLMSC
Launch vehicle
Mass (kg)
RCS (m²)
1.56

External: N2YO · Heavens-Above · Gunter

§ Orbital elements

Epoch: 2026-05-25T04:14:50.826624Z

Period
115.86 min
Inclination
82.4845°
Eccentricity
0.0020411
Mean motion
12.42904866 rev/d
Perigee alt
1,478.2 km
Apogee alt
1,510.4 km
Semi-major
7,872.5 km
B*
-4.6674e-5
RAAN
183.0315°
Arg perigee
143.0332°
Mean anomaly
217.2158°
Rev number
56,303

§ Raw data

COSMOS 2488 (RODNIK-S 7)1 39483U 13076A   26145.17697716  .00000004  00000+0 -46674-4 0  99912 39483  82.4845 183.0315 0020411 143.0332 217.2158 12.42904866563030

JSON: /api/v1/satellites/39483 · /tle

For live sub-satellite position, see the globe view (requires WebGL).

§ Visibility from observer

Set your observer location to see the next 7 days of passes ≥ 10°. The values pass through the URL so the page stays shareable.

No JS? Fill the form by hand. The geolocation button needs JavaScript.

§ Radio — SatNOGS DB

ModeDescriptionDownlinkUplink
FM UHF Unknown 387.175 MHz
FM UHF Unknown 388.687 MHz

2 transmitters · refreshed weekly from db.satnogs.org